| time (UTC) | temp C | wind direction | speed KPH | gust KPH | rain 1hr cm | rain 24hr cm | rain mn cm | humidity % | barometer mb |
| 20260509211550 | 11 | 50 | 11.3 | 0.0 | 0.00 | 0.00 | 0.00 | 50 | 1019.0 |
| 20260509210850 | 11 | 40 | 9.7 | 0.0 | 0.00 | 0.00 | 0.00 | 53 | 1019.0 |
| 20260509210048 | 11 | 40 | 9.7 | 0.0 | 0.00 | 0.00 | 0.00 | 53 | 1019.0 |
| 20260509204846 | 11 | 40 | 9.7 | 0.0 | 0.00 | 0.00 | 0.00 | 53 | 1019.0 |
| 20260509204549 | 11 | 40 | 9.7 | 0.0 | 0.00 | 0.00 | 0.00 | 53 | 1019.0 |
| 20260509203047 | 11 | 30 | 8.0 | 0.0 | 0.00 | 0.00 | 0.00 | 53 | 1019.0 |
| 20260509202845 | 11 | 30 | 8.0 | 0.0 | 0.00 | 0.00 | 0.00 | 53 | 1019.0 |
| 20260509201550 | 11 | 30 | 8.0 | 0.0 | 0.00 | 0.00 | 0.00 | 53 | 1019.0 |
| 20260509200843 | 12 | 30 | 8.0 | 0.0 | 0.00 | 0.00 | 0.00 | 50 | 1019.0 |
| 20260509200049 | 12 | 30 | 8.0 | 0.0 | 0.00 | 0.00 | 0.00 | 50 | 1019.0 |
| 20260509194844 | 12 | 30 | 8.0 | 0.0 | 0.00 | 0.00 | 0.00 | 50 | 1019.0 |
| 20260509194549 | 12 | 30 | 8.0 | 0.0 | 0.00 | 0.00 | 0.00 | 50 | 1019.0 |
| 20260509193057 | 12 | 30 | 8.0 | 0.0 | 0.00 | 0.00 | 0.00 | 47 | 1019.0 |
| 20260509192842 | 12 | 30 | 8.0 | 0.0 | 0.00 | 0.00 | 0.00 | 47 | 1019.0 |
| 20260509191550 | 12 | 30 | 8.0 | 0.0 | 0.00 | 0.00 | 0.00 | 47 | 1019.0 |
| 20260509190841 | 13 | 20 | 8.0 | 0.0 | 0.00 | 0.00 | 0.00 | 44 | 1019.0 |
| 20260509190048 | 13 | 20 | 8.0 | 0.0 | 0.00 | 0.00 | 0.00 | 44 | 1019.0 |
| 20260509184844 | 13 | 20 | 8.0 | 0.0 | 0.00 | 0.00 | 0.00 | 44 | 1019.0 |
| 20260509184549 | 13 | 20 | 8.0 | 0.0 | 0.00 | 0.00 | 0.00 | 44 | 1019.0 |
| 20260509183047 | 15 | 20 | 12.9 | 0.0 | 0.00 | 0.00 | 0.00 | 41 | 1019.0 |
| 20260509182843 | 15 | 20 | 12.9 | 0.0 | 0.00 | 0.00 | 0.00 | 41 | 1019.0 |
| 20260509181550 | 15 | 20 | 12.9 | 0.0 | 0.00 | 0.00 | 0.00 | 41 | 1019.0 |
| 20260509180841 | 16 | 10 | 12.9 | 0.0 | 0.00 | 0.00 | 0.00 | 38 | 1019.0 |
| 20260509180049 | 16 | 10 | 12.9 | 0.0 | 0.00 | 0.00 | 0.00 | 38 | 1019.0 |
| 20260509174845 | 16 | 10 | 12.9 | 0.0 | 0.00 | 0.00 | 0.00 | 38 | 1019.0 |
| 20260509174549 | 16 | 10 | 12.9 | 0.0 | 0.00 | 0.00 | 0.00 | 38 | 1019.0 |
| 20260509173047 | 16 | 360 | 14.5 | 0.0 | 0.00 | 0.00 | 0.00 | 38 | 1019.0 |
| 20260509172843 | 16 | 360 | 14.5 | 0.0 | 0.00 | 0.00 | 0.00 | 38 | 1019.0 |
| 20260509171654 | 16 | 360 | 14.5 | 0.0 | 0.00 | 0.00 | 0.00 | 38 | 1019.0 |
| 20260509170841 | 16 | 10 | 14.5 | 0.0 | 0.00 | 0.00 | 0.00 | 41 | 1019.0 |
| 20260509170048 | 16 | 10 | 14.5 | 0.0 | 0.00 | 0.00 | 0.00 | 41 | 1019.0 |
| 20260509164847 | 16 | 10 | 14.5 | 0.0 | 0.00 | 0.00 | 0.00 | 41 | 1019.0 |
| 20260509164549 | 16 | 10 | 14.5 | 0.0 | 0.00 | 0.00 | 0.00 | 41 | 1019.0 |
| 20260509163047 | 17 | 340 | 16.1 | 0.0 | 0.00 | 0.00 | 0.00 | 41 | 1019.0 |
| 20260509162846 | 17 | 340 | 16.1 | 0.0 | 0.00 | 0.00 | 0.00 | 41 | 1019.0 |
| 20260509161549 | 17 | 340 | 16.1 | 0.0 | 0.00 | 0.00 | 0.00 | 41 | 1019.0 |
| 20260509160844 | 17 | 320 | 16.1 | 0.0 | 0.00 | 0.00 | 0.00 | 41 | 1020.0 |
| 20260509160047 | 17 | 320 | 16.1 | 0.0 | 0.00 | 0.00 | 0.00 | 41 | 1020.0 |
| 20260509154846 | 17 | 320 | 16.1 | 0.0 | 0.00 | 0.00 | 0.00 | 41 | 1020.0 |
| 20260509154549 | 17 | 320 | 16.1 | 0.0 | 0.00 | 0.00 | 0.00 | 41 | 1020.0 |
| 20260509153047 | 17 | 310 | 12.9 | 0.0 | 0.00 | 0.00 | 0.00 | 36 | 1020.0 |
| 20260509152844 | 17 | 310 | 12.9 | 0.0 | 0.00 | 0.00 | 0.00 | 36 | 1020.0 |
| 20260509151550 | 17 | 310 | 12.9 | 0.0 | 0.00 | 0.00 | 0.00 | 36 | 1020.0 |
| 20260509150843 | 17 | 0.0 | 0.0 | 0.00 | 0.00 | 0.00 | 39 | 1020.0 | |
| 20260509150048 | 17 | 0.0 | 0.0 | 0.00 | 0.00 | 0.00 | 39 | 1020.0 | |
| 20260509144852 | 17 | 0.0 | 0.0 | 0.00 | 0.00 | 0.00 | 39 | 1020.0 | |
| 20260509144548 | 17 | 0.0 | 0.0 | 0.00 | 0.00 | 0.00 | 39 | 1020.0 | |
| 20260509143047 | 17 | 0.0 | 0.0 | 0.00 | 0.00 | 0.00 | 39 | 1020.0 | |
| 20260509142850 | 17 | 0.0 | 0.0 | 0.00 | 0.00 | 0.00 | 39 | 1020.0 | |
| 20260509141550 | 17 | 0.0 | 0.0 | 0.00 | 0.00 | 0.00 | 39 | 1020.0 | |
| 20260509140849 | 17 | 0.0 | 0.0 | 0.00 | 0.00 | 0.00 | 39 | 1020.0 | |
| 20260509140049 | 17 | 0.0 | 0.0 | 0.00 | 0.00 | 0.00 | 39 | 1020.0 | |
| 20260509134845 | 17 | 0.0 | 0.0 | 0.00 | 0.00 | 0.00 | 39 | 1020.0 | |
| 20260509134548 | 17 | 0.0 | 0.0 | 0.00 | 0.00 | 0.00 | 39 | 1020.0 | |
| 20260509133047 | 17 | 60 | 8.0 | 0.0 | 0.00 | 0.00 | 0.00 | 41 | 1020.0 |
| 20260509132843 | 17 | 60 | 8.0 | 0.0 | 0.00 | 0.00 | 0.00 | 41 | 1020.0 |
| 20260509131550 | 17 | 60 | 8.0 | 0.0 | 0.00 | 0.00 | 0.00 | 41 | 1020.0 |
| 20260509130842 | 17 | 0.0 | 0.0 | 0.00 | 0.00 | 0.00 | 41 | 1021.0 | |
| 20260509130047 | 17 | 0.0 | 0.0 | 0.00 | 0.00 | 0.00 | 41 | 1021.0 | |
| 20260509124845 | 17 | 0.0 | 0.0 | 0.00 | 0.00 | 0.00 | 41 | 1021.0 | |
| 20260509124548 | 17 | 0.0 | 0.0 | 0.00 | 0.00 | 0.00 | 41 | 1021.0 | |
| 20260509123046 | 17 | 130 | 11.3 | 0.0 | 0.00 | 0.00 | 0.00 | 39 | 1021.0 |
| 20260509122843 | 17 | 130 | 11.3 | 0.0 | 0.00 | 0.00 | 0.00 | 39 | 1021.0 |
| 20260509121549 | 17 | 130 | 11.3 | 0.0 | 0.00 | 0.00 | 0.00 | 39 | 1021.0 |
| 20260509120842 | 16 | 50 | 9.7 | 0.0 | 0.00 | 0.00 | 0.00 | 44 | 1021.0 |
| 20260509120047 | 16 | 50 | 9.7 | 0.0 | 0.00 | 0.00 | 0.00 | 44 | 1021.0 |
| 20260509114845 | 16 | 50 | 9.7 | 0.0 | 0.00 | 0.00 | 0.00 | 44 | 1021.0 |
| 20260509114549 | 16 | 50 | 9.7 | 0.0 | 0.00 | 0.00 | 0.00 | 44 | 1021.0 |
| 20260509113047 | 17 | 0.0 | 0.0 | 0.00 | 0.00 | 0.00 | 45 | 1021.0 | |
| 20260509112843 | 17 | 0.0 | 0.0 | 0.00 | 0.00 | 0.00 | 45 | 1021.0 | |
| 20260509111551 | 17 | 0.0 | 0.0 | 0.00 | 0.00 | 0.00 | 45 | 1021.0 | |
| 20260509110842 | 16 | 0.0 | 0.0 | 0.00 | 0.00 | 0.00 | 47 | 1021.0 | |
| 20260509110047 | 16 | 0.0 | 0.0 | 0.00 | 0.00 | 0.00 | 47 | 1021.0 | |
| 20260509104844 | 16 | 0.0 | 0.0 | 0.00 | 0.00 | 0.00 | 47 | 1021.0 | |
| 20260509104548 | 16 | 0.0 | 0.0 | 0.00 | 0.00 | 0.00 | 47 | 1021.0 | |
| 20260509103046 | 16 | 170 | 12.9 | 0.0 | 0.00 | 0.00 | 0.00 | 44 | 1021.0 |
| 20260509102842 | 16 | 170 | 12.9 | 0.0 | 0.00 | 0.00 | 0.00 | 44 | 1021.0 |
| 20260509101550 | 16 | 170 | 12.9 | 0.0 | 0.00 | 0.00 | 0.00 | 44 | 1021.0 |
| 20260509100840 | 15 | 0.0 | 0.0 | 0.00 | 0.00 | 0.00 | 44 | 1022.0 | |
| 20260509100048 | 15 | 0.0 | 0.0 | 0.00 | 0.00 | 0.00 | 44 | 1022.0 | |
| 20260509094844 | 15 | 0.0 | 0.0 | 0.00 | 0.00 | 0.00 | 44 | 1022.0 | |
| 20260509094549 | 15 | 0.0 | 0.0 | 0.00 | 0.00 | 0.00 | 44 | 1022.0 | |
| 20260509093046 | 15 | 110 | 8.0 | 0.0 | 0.00 | 0.00 | 0.00 | 44 | 1022.0 |
| 20260509092843 | 15 | 110 | 8.0 | 0.0 | 0.00 | 0.00 | 0.00 | 44 | 1022.0 |
| 20260509091549 | 15 | 110 | 8.0 | 0.0 | 0.00 | 0.00 | 0.00 | 44 | 1022.0 |
| 20260509090841 | 13 | 90 | 11.3 | 0.0 | 0.00 | 0.00 | 0.00 | 47 | 1022.0 |
| 20260509090047 | 13 | 90 | 11.3 | 0.0 | 0.00 | 0.00 | 0.00 | 47 | 1022.0 |
| 20260509084845 | 13 | 90 | 11.3 | 0.0 | 0.00 | 0.00 | 0.00 | 47 | 1022.0 |
| 20260509084548 | 13 | 90 | 11.3 | 0.0 | 0.00 | 0.00 | 0.00 | 47 | 1022.0 |
| 20260509083047 | 13 | 60 | 4.8 | 0.0 | 0.00 | 0.00 | 0.00 | 41 | 1022.0 |
| 20260509082843 | 13 | 60 | 4.8 | 0.0 | 0.00 | 0.00 | 0.00 | 41 | 1022.0 |
| 20260509081549 | 13 | 60 | 4.8 | 0.0 | 0.00 | 0.00 | 0.00 | 41 | 1022.0 |
| 20260509080841 | 12 | 20 | 4.8 | 0.0 | 0.00 | 0.00 | 0.00 | 43 | 1022.0 |
| 20260509080048 | 12 | 20 | 4.8 | 0.0 | 0.00 | 0.00 | 0.00 | 43 | 1022.0 |
| 20260509074845 | 12 | 20 | 4.8 | 0.0 | 0.00 | 0.00 | 0.00 | 43 | 1022.0 |
| 20260509074548 | 12 | 20 | 4.8 | 0.0 | 0.00 | 0.00 | 0.00 | 43 | 1022.0 |
| 20260509073046 | 12 | 0.0 | 0.0 | 0.00 | 0.00 | 0.00 | 57 | 1022.0 | |
| 20260509072843 | 12 | 0.0 | 0.0 | 0.00 | 0.00 | 0.00 | 57 | 1022.0 | |
| 20260509071549 | 12 | 0.0 | 0.0 | 0.00 | 0.00 | 0.00 | 57 | 1022.0 | |
| 20260509070842 | 12 | 0.0 | 0.0 | 0.00 | 0.00 | 0.00 | 58 | 1022.0 | |
| 20260509070047 | 12 | 0.0 | 0.0 | 0.00 | 0.00 | 0.00 | 58 | 1022.0 | |
| 20260509064845 | 12 | 0.0 | 0.0 | 0.00 | 0.00 | 0.00 | 58 | 1022.0 | |
| 20260509064548 | 12 | 0.0 | 0.0 | 0.00 | 0.00 | 0.00 | 58 | 1022.0 | |
| 20260509063046 | 10 | 0.0 | 0.0 | 0.00 | 0.00 | 0.00 | 66 | 1022.0 | |
| 20260509062844 | 10 | 0.0 | 0.0 | 0.00 | 0.00 | 0.00 | 66 | 1022.0 | |
| 20260509061549 | 10 | 0.0 | 0.0 | 0.00 | 0.00 | 0.00 | 66 | 1022.0 | |
| 20260509060842 | 7 | 0.0 | 0.0 | 0.00 | 0.00 | 0.00 | 81 | 1022.0 | |
| 20260509060047 | 7 | 0.0 | 0.0 | 0.00 | 0.00 | 0.00 | 81 | 1022.0 | |
| 20260509054845 | 7 | 0.0 | 0.0 | 0.00 | 0.00 | 0.00 | 81 | 1022.0 | |
| 20260509054548 | 7 | 0.0 | 0.0 | 0.00 | 0.00 | 0.00 | 81 | 1022.0 | |
| 20260509053047 | 7 | 0.0 | 0.0 | 0.00 | 0.00 | 0.00 | 81 | 1022.0 | |
| 20260509052844 | 7 | 0.0 | 0.0 | 0.00 | 0.00 | 0.00 | 81 | 1022.0 | |
| 20260509051549 | 7 | 0.0 | 0.0 | 0.00 | 0.00 | 0.00 | 81 | 1022.0 | |
| 20260509050842 | 3 | 0.0 | 0.0 | 0.00 | 0.00 | 0.00 | 93 | 1022.0 | |
| 20260509050047 | 3 | 0.0 | 0.0 | 0.00 | 0.00 | 0.00 | 93 | 1022.0 | |
| 20260509044845 | 3 | 0.0 | 0.0 | 0.00 | 0.00 | 0.00 | 93 | 1022.0 | |
| 20260509044548 | 3 | 0.0 | 0.0 | 0.00 | 0.00 | 0.00 | 93 | 1022.0 | |
| 20260509043047 | 3 | 0.0 | 0.0 | 0.00 | 0.00 | 0.00 | 93 | 1021.0 | |
| 20260509042843 | 3 | 0.0 | 0.0 | 0.00 | 0.00 | 0.00 | 93 | 1021.0 | |
| 20260509041550 | 3 | 0.0 | 0.0 | 0.00 | 0.00 | 0.00 | 93 | 1021.0 | |
| 20260509040842 | 2 | 0.0 | 0.0 | 0.00 | 0.00 | 0.00 | 100 | 1021.0 | |
| 20260509040047 | 2 | 0.0 | 0.0 | 0.00 | 0.00 | 0.00 | 100 | 1021.0 | |
| 20260509034846 | 2 | 0.0 | 0.0 | 0.00 | 0.00 | 0.00 | 100 | 1021.0 | |
| 20260509034548 | 2 | 0.0 | 0.0 | 0.00 | 0.00 | 0.00 | 100 | 1021.0 | |
| 20260509033046 | 2 | 0.0 | 0.0 | 0.00 | 0.00 | 0.00 | 100 | 1021.0 | |
| 20260509032844 | 2 | 0.0 | 0.0 | 0.00 | 0.00 | 0.00 | 100 | 1021.0 | |
| 20260509031549 | 2 | 0.0 | 0.0 | 0.00 | 0.00 | 0.00 | 100 | 1021.0 | |
| 20260509030842 | 3 | 0.0 | 0.0 | 0.00 | 0.00 | 0.00 | 93 | 1021.0 | |
| 20260509030046 | 3 | 0.0 | 0.0 | 0.00 | 0.00 | 0.00 | 93 | 1021.0 | |
| 20260509024844 | 3 | 0.0 | 0.0 | 0.00 | 0.00 | 0.00 | 93 | 1021.0 | |
| 20260509024548 | 3 | 0.0 | 0.0 | 0.00 | 0.00 | 0.00 | 93 | 1021.0 | |
| 20260509023046 | 3 | 0.0 | 0.0 | 0.00 | 0.00 | 0.00 | 93 | 1021.0 | |
| 20260509022842 | 3 | 0.0 | 0.0 | 0.00 | 0.00 | 0.00 | 93 | 1021.0 | |
| 20260509021549 | 3 | 0.0 | 0.0 | 0.00 | 0.00 | 0.00 | 93 | 1021.0 | |
| 20260509020840 | 3 | 0.0 | 0.0 | 0.00 | 0.00 | 0.00 | 93 | 1021.0 | |
| 20260509020046 | 3 | 0.0 | 0.0 | 0.00 | 0.00 | 0.00 | 93 | 1021.0 | |
| 20260509014844 | 3 | 0.0 | 0.0 | 0.00 | 0.00 | 0.00 | 93 | 1021.0 | |
| 20260509014548 | 3 | 0.0 | 0.0 | 0.00 | 0.00 | 0.00 | 93 | 1021.0 | |
| 20260509013046 | 3 | 0.0 | 0.0 | 0.00 | 0.00 | 0.00 | 93 | 1021.0 | |
| 20260509012843 | 3 | 0.0 | 0.0 | 0.00 | 0.00 | 0.00 | 93 | 1021.0 | |
| 20260509011549 | 3 | 0.0 | 0.0 | 0.00 | 0.00 | 0.00 | 93 | 1021.0 | |
| 20260509010841 | 3 | 30 | 4.8 | 0.0 | 0.00 | 0.00 | 0.00 | 93 | 1021.0 |
| 20260509010050 | 3 | 30 | 4.8 | 0.0 | 0.00 | 0.00 | 0.00 | 93 | 1021.0 |
| 20260509004845 | 3 | 30 | 4.8 | 0.0 | 0.00 | 0.00 | 0.00 | 93 | 1021.0 |
| 20260509004547 | 3 | 30 | 4.8 | 0.0 | 0.00 | 0.00 | 0.00 | 93 | 1021.0 |
| 20260509003046 | 6 | 30 | 4.8 | 0.0 | 0.00 | 0.00 | 0.00 | 86 | 1022.0 |
| 20260509002843 | 6 | 30 | 4.8 | 0.0 | 0.00 | 0.00 | 0.00 | 86 | 1022.0 |
| 20260509001549 | 6 | 30 | 4.8 | 0.0 | 0.00 | 0.00 | 0.00 | 86 | 1022.0 |
| 20260509000842 | 6 | 0.0 | 0.0 | 0.00 | 0.00 | 0.00 | 86 | 1022.0 | |
| 20260509000046 | 6 | 0.0 | 0.0 | 0.00 | 0.00 | 0.00 | 86 | 1022.0 | |
| 20260508234845 | 6 | 0.0 | 0.0 | 0.00 | 0.00 | 0.00 | 86 | 1022.0 | |
| 20260508234548 | 6 | 0.0 | 0.0 | 0.00 | 0.00 | 0.00 | 86 | 1022.0 | |
| 20260508233046 | 6 | 10 | 4.8 | 0.0 | 0.00 | 0.00 | 0.00 | 86 | 1022.0 |
| 20260508232843 | 6 | 10 | 4.8 | 0.0 | 0.00 | 0.00 | 0.00 | 86 | 1022.0 |
| 20260508231549 | 6 | 10 | 4.8 | 0.0 | 0.00 | 0.00 | 0.00 | 86 | 1022.0 |
| 20260508230842 | 7 | 0.0 | 0.0 | 0.00 | 0.00 | 0.00 | 81 | 1022.0 | |
| 20260508230047 | 7 | 0.0 | 0.0 | 0.00 | 0.00 | 0.00 | 81 | 1022.0 | |
| 20260508224845 | 7 | 0.0 | 0.0 | 0.00 | 0.00 | 0.00 | 81 | 1022.0 | |
| 20260508224548 | 7 | 0.0 | 0.0 | 0.00 | 0.00 | 0.00 | 81 | 1022.0 | |
| 20260508223046 | 7 | 20 | 4.8 | 0.0 | 0.00 | 0.00 | 0.00 | 81 | 1022.0 |
| 20260508222843 | 7 | 20 | 4.8 | 0.0 | 0.00 | 0.00 | 0.00 | 81 | 1022.0 |
| 20260508221556 | 7 | 20 | 4.8 | 0.0 | 0.00 | 0.00 | 0.00 | 81 | 1022.0 |
| 20260508220842 | 7 | 20 | 8.0 | 0.0 | 0.00 | 0.00 | 0.00 | 81 | 1021.0 |
| 20260508220049 | 7 | 20 | 8.0 | 0.0 | 0.00 | 0.00 | 0.00 | 81 | 1021.0 |
| 20260508214852 | 7 | 20 | 8.0 | 0.0 | 0.00 | 0.00 | 0.00 | 81 | 1021.0 |
| 20260508214547 | 7 | 20 | 8.0 | 0.0 | 0.00 | 0.00 | 0.00 | 81 | 1021.0 |
| 20260508213046 | 7 | 10 | 8.0 | 0.0 | 0.00 | 0.00 | 0.00 | 70 | 1021.0 |
| 20260508212850 | 7 | 10 | 8.0 | 0.0 | 0.00 | 0.00 | 0.00 | 70 | 1021.0 |